Weather History for KBWP - April, 2014

Change the Weather History Date:

Sunday, April 13, 2014

  Actual Average (KFFM) Record (KFFM)
Temperature  
Mean Temperature 34 °F -  
Max Temperature 41 °F 49 °F 89 °F (2003)
Min Temperature 26 °F 30 °F 11 °F (1992)
Degree Days  
Heating Degree Days 32    
Moisture  
Dew Point 22 °F    
Average Humidity 69    
Maximum Humidity 87    
Minimum Humidity 55    
Precipitation  
Precipitation 0.00 in - - ()
Sea Level Pressure  
Sea Level Pressure 30.05 in    
Wind  
Wind Speed 22 mph (North)    
Max Wind Speed 29 mph    
Max Gust Speed 38 mph    
Visibility 10 miles    
Events      
Averages and records for this station are not official NWS values.
T = Trace of Precipitation, MM = Missing Value Source: NWS Daily Summary

Daily Weather History Graph

Daily Weather History Graph

Search for Another Location

Airport or City:

Trip Planner

Search our weather history database for the weather conditions in past years. The results will help you decide how hot, cold, wet, or windy it might be!

Date:

Astronomy

Apr. 13, 2014 Rise Set
Actual Time 6:43 AM CDT 8:11 PM CDT
Civil Twilight 6:12 AM CDT 8:42 PM CDT
Nautical Twilight 5:34 AM CDT 9:20 PM CDT
Astronomical Twilight 4:53 AM CDT 10:01 PM CDT
Moon 6:46 PM CDT (4/13) 5:48 AM CDT (4/13)
Length of Visible Light 14h 30m
Length of Day
13h 27m
Waxing Gibbous, 97% of the Moon is Illuminated
Apr 13
Waxing Gibbous
Apr 15
Full
Apr 22
Last Quarter
Apr 29
New
May 6
First Quarter

Hourly Weather History & Observations

Time (CDT) Temp. Windchill Dew Point Humidity Pressure Visibility Wind Dir Wind Speed Gust Speed Precip Events Conditions
12:15 AM 41.0 °F 32.2 °F 33.8 °F 76% 29.84 in 10.0 mi North 18.4 mph 26.5 mph N/A   Overcast
12:55 AM 39.2 °F 29.8 °F 33.8 °F 81% 29.84 in 10.0 mi North 18.4 mph 25.3 mph N/A   Overcast
1:15 AM 39.2 °F 28.3 °F 33.8 °F 81% 29.84 in 10.0 mi North 25.3 mph 28.8 mph N/A   Overcast
1:35 AM 37.4 °F 25.6 °F 32.0 °F 81% 29.86 in 10.0 mi North 26.5 mph 31.1 mph N/A   Overcast
1:55 AM 37.4 °F 26.6 °F 32.0 °F 81% 29.87 in 10.0 mi North 21.9 mph 27.6 mph N/A   Overcast
2:15 AM 37.4 °F 27.8 °F 32.0 °F 81% 29.91 in 10.0 mi North 17.3 mph 25.3 mph N/A   Overcast
2:35 AM 35.6 °F 25.5 °F 32.0 °F 87% 29.92 in 10.0 mi North 17.3 mph 25.3 mph N/A   Overcast
2:55 AM 35.6 °F 24.5 °F 32.0 °F 87% 29.94 in 10.0 mi North 20.7 mph 25.3 mph N/A   Overcast
3:15 AM 35.6 °F 24.5 °F 32.0 °F 87% 29.95 in 10.0 mi North 20.7 mph 27.6 mph N/A   Overcast
3:35 AM 33.8 °F 22.2 °F 28.4 °F 81% 29.96 in 10.0 mi North 20.7 mph 28.8 mph N/A   Overcast
3:55 AM 32.0 °F 20.1 °F 28.4 °F 87% 29.96 in 10.0 mi North 19.6 mph 27.6 mph N/A   Overcast
4:15 AM 32.0 °F 21.2 °F 28.4 °F 87% 29.97 in 10.0 mi North 16.1 mph 24.2 mph N/A   Overcast
4:35 AM 32.0 °F 20.1 °F 28.4 °F 87% 29.97 in 10.0 mi North 19.6 mph 29.9 mph N/A   Overcast
4:55 AM 32.0 °F 19.5 °F 28.4 °F 87% 29.97 in 10.0 mi North 21.9 mph 26.5 mph N/A   Overcast
5:15 AM 32.0 °F 20.8 °F 26.6 °F 80% 29.98 in 10.0 mi North 17.3 mph 28.8 mph N/A   Overcast
5:35 AM 32.0 °F 19.8 °F 24.8 °F 75% 29.99 in 10.0 mi North 20.7 mph 31.1 mph N/A   Overcast
5:55 AM 32.0 °F 18.9 °F 24.8 °F 75% 29.99 in 10.0 mi North 24.2 mph 27.6 mph N/A   Overcast
6:15 AM 32.0 °F 22.1 °F 24.8 °F 75% 30.01 in 10.0 mi North 13.8 mph 26.5 mph N/A   Overcast
6:35 AM 32.0 °F 20.5 °F 24.8 °F 75% 30.01 in 10.0 mi North 18.4 mph 26.5 mph N/A   Overcast
6:55 AM 32.0 °F 19.8 °F 24.8 °F 75% 30.01 in 10.0 mi NNW 20.7 mph 27.6 mph N/A   Overcast
7:15 AM 30.2 °F 18.5 °F 23.0 °F 75% 30.02 in 10.0 mi NNW 17.3 mph 26.5 mph N/A   Overcast
7:55 AM 30.2 °F 17.1 °F 23.0 °F 75% 30.04 in 10.0 mi North 21.9 mph 28.8 mph N/A   Overcast
8:15 AM 30.2 °F 17.8 °F 23.0 °F 75% 30.05 in 10.0 mi NNW 19.6 mph 27.6 mph N/A   Overcast
8:35 AM 30.2 °F 17.8 °F 21.2 °F 69% 30.05 in 10.0 mi North 19.6 mph 28.8 mph N/A   Overcast
8:55 AM 30.2 °F 17.4 °F 23.0 °F 75% 30.05 in 10.0 mi NNW 20.7 mph 31.1 mph N/A   Overcast
9:15 AM 32.0 °F 18.4 °F 21.2 °F 64% 30.05 in 10.0 mi NNW 26.5 mph 31.1 mph N/A   Overcast
9:35 AM 32.0 °F 18.9 °F 21.2 °F 64% 30.05 in 10.0 mi NNW 24.2 mph 32.2 mph N/A   Overcast
9:55 AM 32.0 °F 19.2 °F 23.0 °F 69% 30.04 in 10.0 mi NNW 23.0 mph 28.8 mph N/A   Overcast
10:15 AM 32.0 °F 18.6 °F 21.2 °F 64% 30.04 in 10.0 mi NNW 25.3 mph 32.2 mph N/A   Overcast
10:35 AM 32.0 °F 19.5 °F 23.0 °F 69% 30.05 in 10.0 mi North 21.9 mph 31.1 mph N/A   Overcast
10:55 AM 30.2 °F 16.5 °F 23.0 °F 75% 30.06 in 10.0 mi NNW 24.2 mph 33.4 mph N/A   Overcast
11:15 AM 30.2 °F 15.4 °F 21.2 °F 69% 30.06 in 10.0 mi North 28.8 mph 34.5 mph N/A   Overcast
11:35 AM 30.2 °F 15.9 °F 21.2 °F 69% 30.06 in 10.0 mi North 26.5 mph 36.8 mph N/A   Overcast
11:55 AM 30.2 °F 15.9 °F 21.2 °F 69% 30.06 in 10.0 mi North 26.5 mph 33.4 mph N/A   Overcast
12:15 PM 30.2 °F 17.1 °F 21.2 °F 69% 30.08 in 10.0 mi North 21.9 mph 32.2 mph N/A   Overcast
12:35 PM 32.0 °F 18.1 °F 21.2 °F 64% 30.08 in 10.0 mi North 27.6 mph 34.5 mph N/A   Overcast
12:55 PM 32.0 °F 17.9 °F 21.2 °F 64% 30.07 in 10.0 mi North 28.8 mph 34.5 mph N/A   Overcast
1:15 PM 32.0 °F 18.4 °F 21.2 °F 64% 30.06 in 10.0 mi North 26.5 mph 36.8 mph N/A   Mostly Cloudy
1:35 PM 32.0 °F 18.4 °F 21.2 °F 64% 30.07 in 10.0 mi North 26.5 mph 36.8 mph N/A   Overcast
1:55 PM 32.0 °F 18.1 °F 21.2 °F 64% 30.08 in 10.0 mi North 27.6 mph 34.5 mph N/A   Mostly Cloudy
2:15 PM 32.0 °F 18.1 °F 21.2 °F 64% 30.09 in 10.0 mi North 27.6 mph 34.5 mph N/A   Overcast
2:35 PM 32.0 °F 17.9 °F 21.2 °F 64% 30.09 in 10.0 mi North 28.8 mph 33.4 mph N/A   Overcast
2:55 PM 32.0 °F 19.8 °F 21.2 °F 64% 30.10 in 10.0 mi North 20.7 mph 34.5 mph N/A   Overcast
3:15 PM 32.0 °F 20.1 °F 21.2 °F 64% 30.11 in 10.0 mi North 19.6 mph 29.9 mph N/A   Overcast
3:35 PM 33.8 °F 21.3 °F 21.2 °F 60% 30.11 in 10.0 mi North 24.2 mph 32.2 mph N/A   Overcast
3:55 PM 32.0 °F 19.8 °F 19.4 °F 60% 30.11 in 10.0 mi North 20.7 mph 33.4 mph N/A   Overcast
4:15 PM 32.0 °F 19.5 °F 19.4 °F 60% 30.11 in 10.0 mi North 21.9 mph 31.1 mph N/A   Overcast
4:35 PM 32.0 °F 19.8 °F 19.4 °F 60% 30.11 in 10.0 mi North 20.7 mph 35.7 mph N/A   Overcast
4:55 PM 32.0 °F 18.6 °F 19.4 °F 60% 30.11 in 10.0 mi North 25.3 mph 34.5 mph N/A   Overcast
5:15 PM 32.0 °F 18.9 °F 19.4 °F 60% 30.11 in 10.0 mi North 24.2 mph 31.1 mph N/A   Overcast
5:35 PM 32.0 °F 19.2 °F 19.4 °F 60% 30.11 in 10.0 mi North 23.0 mph 31.1 mph N/A   Overcast
5:55 PM 32.0 °F 17.9 °F 19.4 °F 60% 30.11 in 10.0 mi North 28.8 mph 36.8 mph N/A   Overcast
6:15 PM 30.2 °F 15.9 °F 19.4 °F 64% 30.11 in 10.0 mi North 26.5 mph 35.7 mph N/A   Overcast
6:35 PM 30.2 °F 17.1 °F 19.4 °F 64% 30.12 in 10.0 mi North 21.9 mph 31.1 mph N/A   Overcast
6:55 PM 30.2 °F 17.8 °F 19.4 °F 64% 30.12 in 10.0 mi North 19.6 mph 33.4 mph N/A   Overcast
7:15 PM 30.2 °F 16.5 °F 19.4 °F 64% 30.12 in 10.0 mi North 24.2 mph 29.9 mph N/A   Overcast
7:35 PM 30.2 °F 17.1 °F 17.6 °F 60% 30.13 in 10.0 mi North 21.9 mph 33.4 mph N/A   Mostly Cloudy
7:55 PM 30.2 °F 17.1 °F 17.6 °F 60% 30.13 in 10.0 mi North 21.9 mph 31.1 mph N/A   Scattered Clouds
8:15 PM 30.2 °F 15.9 °F 17.6 °F 60% 30.12 in 10.0 mi North 26.5 mph 32.2 mph N/A   Scattered Clouds
8:35 PM 30.2 °F 16.5 °F 17.6 °F 60% 30.12 in 10.0 mi North 24.2 mph 33.4 mph N/A   Scattered Clouds
8:55 PM 28.4 °F 13.3 °F 17.6 °F 64% 30.12 in 10.0 mi North 27.6 mph 32.2 mph N/A   Scattered Clouds
9:15 PM 28.4 °F 13.0 °F 14.0 °F 55% 30.14 in 10.0 mi North 28.8 mph 38.0 mph N/A   Clear
9:35 PM 28.4 °F 14.1 °F 14.0 °F 55% 30.15 in 10.0 mi North 24.2 mph 34.5 mph N/A   Clear
9:55 PM 28.4 °F 14.7 °F 14.0 °F 55% 30.16 in 10.0 mi North 21.9 mph 33.4 mph N/A   Clear
10:15 PM 28.4 °F 16.2 °F 14.0 °F 55% 30.16 in 10.0 mi North 17.3 mph 28.8 mph N/A   Clear
10:35 PM 28.4 °F 15.1 °F 14.0 °F 55% 30.17 in 10.0 mi North 20.7 mph 29.9 mph N/A   Clear
10:55 PM 26.6 °F 12.7 °F 14.0 °F 59% 30.17 in 10.0 mi North 20.7 mph 33.4 mph N/A   Clear
11:15 PM 26.6 °F 12.7 °F 14.0 °F 59% 30.17 in 10.0 mi North 20.7 mph 27.6 mph N/A   Clear
11:35 PM 26.6 °F 13.1 °F 14.0 °F 59% 30.18 in 10.0 mi North 19.6 mph 26.5 mph N/A   Clear
11:55 PM 26.6 °F 13.4 °F 15.8 °F 64% 30.18 in 10.0 mi North 18.4 mph 23.0 mph N/A   Clear